Presure
187 173 183 198 189 194 205 167 152 162 153 198 196 145 205 190 175 172 166 156 161 160 159 156 156 151 150 150 151 150 146 145 145 143 143 122 120 103 119 122 121 122 115 111 117 116 115 111 107
192 165 185 170 168 146 161 138 190 204 199 207 184 167 205 208 169 172 176 152 219 226 209 180 158 151 169 166 163 163 164 154 157 153 154 123 155 152 148 142 125 132 127 125 124 122 111 117 116
153 205 158 163 194 198 181 168 158 203 189 186 188 166 194 207 203 174 174 211 208 208 151 127 217 157 216 222 228 198 173 171 217 203 221 162 167 160 159 159 160 161 160 119 126 128 118 105 124
138 179 135 174 181 149 159 133 159 142 158 195 133 197 183 111 119 197 119 193 195 129 211 212 213 154 132 121 222 216 214 216 227 237 239 217 216 236 148 240 143 214 219 83 119 121 120 122 119
184 185 110 185 173 140 153 123 141 124 132 110 191 170 129 127 177 147 201 179 199 107 198 120 122 182 208 194 206 199 215 230 213 235 227 220 229 229 219 220 220 234 240 248 237 248 241 213 237
155 160 183 163 173 156 135 123 119 136 128 123 124 129 113 121 110 112 182 159 182 165 118 203 170 178 211 172 153 173 198 192 208 222 217 232 210 217 199 216 219 207 225 222 212 216 191 213 151
130 176 148 173 184 181 187 187 175 180 126 114 97 119 176 115 137 125 97 194 136 160 174 183 187 174 199 209 197 148 132 141 206 199 194 223 208 202 209 210 213 202 232 190 269 227 194 222 237
185 141 156 181 184 187 161 188 186 179 179 199 212 209 115 198 139 170 125 199 128 194 186 136 201 181 139 127 211 216 136 210 198 182 127 201 156 228 236 197 213 215 263 249 208 205 219 80 214
171 167 171 170 159 178 187 190 183 191 174 166 176 127 188 172 206 134 206 127 207 206 158 151 167 209 201 191 205 217 127 211 213 229 184 205 217 208 231 193 210 224 218 251 242 205 236 241 251
162 144 178 185 144 160 185 185 187 189 170 167 120 197 185 163 184 201 198 191 161 151 135 118 184 190 199 232 175 208 228 231 225 201 210 208 184 204 197 221 222 194 228 257 207 216 208 194 208
179 173 175 163 150 182 150 186 187 192 198 185 202 182 198 133 197 172 190 199 198 196 199 209 198 141 129 237 233 227 215 217 223 224 228 229 215 217 226 229 219 207 226 255 239 217 218 213 207
178 127 164 183 181 183 179 183 190 181 185 197 200 201 197 195 170 189 191 208 196 195 194 129 198 200 143 195 223 221 216 217 213 230 208 215 220 237 234 225 241 219 238 171 226 225 237 222 221
189 174 168 194 172 176 180 201 184 179 195 199 206 202 204 202 204 207 203 190 187 198 199 144 160 205 199 168 213 223 215 209 222 205 194 225 228 242 231 234 210 189 182 198 230 234 218 230 214
151 156 190 197 129 141 188 193 194 182 201 188 196 202 193 182 199 204 204 180 196 200 204 208 203 199 208 166 172 225 218 159 208 225 222 217 187 206 180 230 227 229 241 226 221 213 223 207 211
169 190 162 137 167 191 191 174 198 184 194 207 199 201 204 200 206 194 131 189 197 195 200 206 213 196 217 216 214 235 151 228 216 229 206 178 249 232 241 241 229 224 186 215 214 211 224 204 212
180 195 185 205 195 190 194 190 169 207 205 184 183 207 204 191 202 133 173 175 192 197 197 203 196 200 156 213 212 244 229 229 222 209 241 241 250 230 255 231 218 210 222 217 207 223 216 213 123
193 191 185 191 188 197 193 190 184 184 198 193 206 201 195 198 207 206 200 189 209 209 207 197 208 199 214 165 239 258 247 197 210 245 239 247 237 269 210 224 203 211 219 205 211 219 199 147 209
212 194 182 208 196 186 185 188 202 211 187 197 209 191 197 208 206 207 196 214 220 219 203 203 162 214 223 166 168 257 244 250 253 237 262 282 266 244 224 190 214 210 213 206 224 200 101 197 203
177 211 185 178 179 200 192 174 176 194 215 215 213 192 207 200 191 216 212 208 220 182 232 224 211 229 237 253 190 269 259 266 261 256 292 248 236 239 231 203 214 211 212 123 216 193 195 200 196
206 203 201 204 197 195 186 204 195 203 216 218 191 218 200 188 188 201 194 214 208 215 227 239 231 231 267 278 281 293 313 314 323 329 334 239 190 248 203 201 216 205 199 210 204 209 194 214 186
196 170 198 193 214 197 190 193 197 165 215 206 206 201 196 218 194 215 214 177 216 193 231 190 265 291 298 299 364 412 380 260 359 291 74 200 239 205 194 191 233 210 217 217 205 203 196 194 186
212 198 194 191 203 200 201 170 193 210 203 207 177 211 198 198 210 219 216 225 219 227 227 259 293 308 391 361 367 357 336 335 308 200 251 307 243 222 213 197 189 194 196 193 199 193 217 191 202
205 200 188 203 168 204 201 202 167 185 216 220 198 204 223 200 210 213 220 254 292 277 288 296 384 347 336 342 341 328 328 326 328 324 254 306 223 212 191 180 182 198 204 197 231 181 200 191 219
213 199 214 223 209 208 213 192 212 202 203 217 228 216 232 231 222 103 214 290 284 287 307 370 323 304 316 310 312 309 311 320 320 315 250 259 231 201 202 199 186 201 212 204 181 199 184 194 220
219 194 207 215 216 230 218 202 203 222 211 207 233 197 221 243 230 275 284 280 285 353 342 309 290 289 302 300 296 312 336 326 330 320 277 219 216 216 210 202 200 198 185 175 184 187 199 198 221
215 218 212 235 207 219 229 221 207 218 232 220 243 237 226 233 269 284 271 277 360 321 297 286 279 312 294 295 301 318 299 315 296 292 271 235 197 219 213 201 211 194 185 208 192 203 200 219 246
228 192 237 241 226 230 203 206 223 204 223 221 212 242 259 267 259 270 286 350 315 293 273 270 290 285 294 274 256 250 256 263 279 282 246 213 190 207 191 179 206 193 193 196 204 199 208 225 296
208 216 229 229 235 234 236 237 237 230 226 215 247 258 258 274 269 287 281 323 289 272 271 275 282 283 260 247 244 244 249 240 243 228 214 198 200 222 188 192 184 183 195 203 203 214 217 294 262
255 252 253 245 248 232 227 250 245 236 262 250 251 254 261 266 279 284 351 290 275 261 269 271 280 255 241 229 250 244 239 232 239 209 189 217 197 195 205 170 191 212 222 230 219 234 284 260 247
269 238 237 207 238 252 272 249 231 261 252 253 259 254 262 271 278 308 347 282 263 268 265 274 260 270 239 238 238 222 209 207 199 186 214 191 209 193 197 162 207 193 332 309 278 260 248 245 245
Wind_Speed
47 50 48 45 53 56 54 56 57 62 64 52 56 64 44 65 72 77 83 80 82 81 82 83 83 77 73 73 74 72 71 72 70 67 70 64 62 45 58 59 58 57 52 49 52 53 52 51 51
45 50 48 53 57 59 53 49 50 45 52 44 54 66 54 54 55 66 63 75 57 49 65 63 75 76 89 87 86 84 84 76 80 79 82 58 84 82 78 73 61 63 62 60 59 59 51 55 54
55 35 57 58 51 57 59 52 51 47 52 53 56 58 57 50 53 67 69 53 59 62 54 58 58 63 64 59 58 64 72 70 68 65 63 88 92 90 88 86 86 85 82 57 64 66 55 50 60
57 51 65 59 62 62 57 46 52 49 54 55 55 56 60 50 51 61 56 64 65 61 56 58 59 73 62 56 57 63 67 65 58 55 49 66 70 51 76 50 73 72 69 34 59 62 60 62 57
46 47 56 47 62 62 56 41 52 48 55 48 56 63 53 54 62 59 59 60 62 27 67 51 60 74 65 75 69 61 61 58 69 55 56 60 55 53 63 66 63 53 50 52 56 54 57 63 56
54 56 46 67 66 67 56 44 50 58 55 53 56 58 49 53 49 50 69 63 69 60 56 62 71 69 64 72 69 67 75 76 69 63 63 54 63 59 75 65 64 69 55 61 60 63 62 59 64
52 45 65 59 61 67 67 53 52 53 59 51 50 56 57 55 57 64 46 67 67 65 75 76 69 75 72 58 63 60 63 70 66 71 71 58 65 66 67 68 64 70 54 70 43 55 64 46 49
52 55 54 57 60 59 66 59 62 65 66 55 56 55 54 60 71 66 69 66 52 67 77 70 68 80 54 73 65 63 54 65 77 81 56 73 43 54 55 71 63 61 47 51 56 62 55 20 50
57 49 54 59 64 63 64 60 68 61 60 61 62 65 60 61 56 47 59 74 57 57 65 70 69 68 75 81 78 73 74 70 65 62 75 73 63 68 58 71 64 53 55 49 42 59 45 43 38
56 56 55 58 63 59 62 65 67 61 65 61 58 61 58 61 66 61 60 63 72 71 76 69 70 74 74 68 74 73 73 73 68 75 66 71 77 66 70 58 56 66 54 48 52 51 54 34 51
57 62 66 72 63 62 57 69 65 65 62 67 63 70 64 68 65 67 65 62 63 64 65 63 63 78 69 68 67 71 70 67 62 61 60 60 66 63 62 63 63 65 51 42 41 47 48 45 46
59 54 70 66 67 69 71 67 68 68 69 68 65 66 67 66 62 67 68 65 64 66 66 64 66 67 79 64 70 72 72 71 64 64 58 64 62 62 60 56 48 56 51 52 42 44 41 45 44
61 68 68 68 65 66 70 68 70 74 70 68 67 66 66 65 65 63 65 68 65 66 68 47 73 68 65 67 67 76 72 69 76 66 76 66 62 57 56 53 48 51 56 48 40 39 43 43 43
58 60 64 66 62 60 70 66 66 76 72 73 69 68 69 68 65 66 61 69 69 68 70 71 71 70 71 69 56 75 77 58 75 75 66 56 52 60 56 47 43 46 47 42 40 43 40 41 45
76 67 66 66 74 70 66 74 70 70 72 69 70 68 68 69 68 65 69 67 66 69 70 71 75 70 83 81 81 78 51 77 71 74 67 64 59 62 54 47 44 46 51 44 43 43 44 43 45
75 69 71 70 67 69 70 72 76 70 69 74 70 70 69 72 68 60 71 68 69 68 69 71 67 72 54 80 80 80 83 82 74 76 69 61 59 63 52 36 44 51 43 44 46 43 44 44 28
73 70 69 68 69 69 70 68 72 74 70 73 69 69 69 69 71 71 72 72 74 72 71 68 75 67 84 58 91 82 83 62 72 75 63 57 58 61 50 37 49 46 42 45 48 40 42 36 40
77 70 74 74 74 73 74 70 66 73 77 73 70 70 68 70 74 68 69 77 80 80 70 68 72 78 87 65 65 87 77 77 78 76 72 74 64 52 40 47 41 42 41 50 44 39 36 39 33
79 78 78 82 76 65 72 74 75 77 76 75 71 70 68 66 67 77 76 74 82 72 86 82 70 92 95 99 70 86 83 86 80 73 73 55 51 49 36 39 38 40 48 32 45 37 42 42 27
83 76 76 78 73 72 76 78 79 76 79 77 71 74 68 71 72 71 72 79 77 79 87 95 90 96 101 92 90 91 81 75 74 72 64 49 37 42 46 37 37 41 46 47 45 39 40 43 31
78 69 83 80 85 79 75 73 78 71 83 79 70 71 72 78 71 74 77 68 83 69 92 76 93 88 87 88 71 51 51 53 57 52 28 39 47 46 53 44 38 42 46 48 48 43 39 36 33
89 86 85 83 82 80 79 73 77 85 81 78 77 78 72 71 74 82 84 90 84 90 76 80 83 83 62 56 47 40 44 47 52 63 47 49 39 33 28 35 39 44 49 49 44 44 39 41 38
88 88 81 90 59 87 83 79 75 80 96 91 79 78 88 75 79 80 85 94 74 75 77 78 63 44 42 40 37 41 41 40 44 50 43 48 46 42 48 62 51 49 57 46 47 42 41 41 40
94 87 99 96 94 90 95 76 84 81 89 94 92 86 94 94 88 24 81 76 74 73 75 52 37 35 30 31 33 35 37 38 38 41 44 49 51 55 50 59 50 60 57 51 46 46 42 38 43
97 87 95 97 94 89 97 81 87 92 85 84 93 75 86 91 89 83 75 73 68 52 42 32 30 33 33 27 29 30 32 32 35 33 43 54 59 58 59 58 45 50 46 54 49 49 48 47 50
98 99 97 90 93 97 90 89 90 91 92 88 90 89 90 92 82 71 66 67 40 37 32 27 27 27 25 25 28 29 27 25 33 34 40 61 43 57 59 52 58 54 57 63 57 55 50 51 46
95 82 88 90 93 90 86 88 94 82 88 89 88 92 87 81 71 65 68 43 35 29 25 24 27 23 23 18 20 22 23 28 34 29 44 49 39 53 48 53 53 60 63 60 54 47 54 50 41
77 93 88 87 87 87 89 90 90 89 86 81 89 82 82 74 70 67 56 34 32 28 25 22 23 23 23 25 26 28 29 35 40 46 52 51 58 46 58 61 59 58 60 54 49 52 52 38 41
88 87 86 85 84 88 90 88 87 87 80 81 79 82 78 75 71 58 44 34 32 27 25 23 24 27 33 33 32 37 38 35 43 51 52 54 60 39 54 42 55 55 53 52 52 45 33 38 42
76 78 80 74 85 84 77 82 86 78 78 76 75 77 77 72 62 46 33 37 31 30 26 27 30 29 39 39 38 45 48 49 51 49 46 57 51 62 58 35 47 50 20 22 27 30 32 36 38
Wind_Direction
275 261 270 274 271 267 267 264 261 263 264 260 256 265 259 260 262 263 263 266 267 267 268 270 269 271 271 272 271 269 269 270 270 269 269 265 264 260 263 261 260 261 262 260 260 260 262 266 268
270 265 272 269 267 262 263 258 268 270 269 269 264 264 259 254 263 263 266 268 261 266 262 269 267 268 268 269 269 270 270 270 270 271 271 273 271 270 267 263 261 263 260 261 262 262 263 259 263
257 269 262 269 271 268 271 267 265 269 270 270 268 266 265 263 260 264 266 262 264 265 267 267 267 267 267 269 271 273 271 270 270 269 271 269 268 270 270 270 271 271 270 261 262 263 263 261 266
260 271 262 271 270 264 265 262 257 265 268 269 260 268 268 265 266 263 269 263 265 269 270 270 269 270 268 268 275 273 273 274 274 272 269 267 267 272 267 280 265 270 270 268 266 267 267 267 266
267 263 269 268 269 263 264 264 260 262 260 263 267 271 262 265 271 269 264 266 266 254 268 276 271 271 273 271 270 272 274 272 271 274 269 267 265 267 269 271 272 274 276 274 271 268 269 269 271
267 265 263 269 270 265 264 261 265 258 263 262 267 267 264 266 264 268 275 268 275 271 278 270 271 273 275 270 270 272 273 272 274 274 270 265 265 264 270 271 273 270 275 273 268 271 266 266 270
266 267 268 263 268 270 272 276 271 272 262 263 271 271 269 269 271 270 268 271 271 265 277 273 269 276 271 274 271 273 283 282 269 271 270 267 266 267 266 267 270 268 280 269 273 268 268 268 267
263 266 269 264 265 273 268 275 270 268 270 280 277 274 272 269 261 265 271 268 279 269 273 263 273 274 288 282 281 279 291 269 268 273 280 270 267 272 278 270 268 272 291 280 271 270 266 259 266
263 267 266 265 268 269 273 277 268 274 270 269 275 260 269 266 271 273 271 268 274 277 282 279 286 280 277 274 275 282 284 275 274 278 267 270 269 267 278 269 268 279 278 275 269 269 270 268 264
265 267 260 270 269 273 271 271 270 274 270 272 266 276 276 266 271 272 271 270 268 265 273 284 278 276 280 286 274 282 281 281 283 270 274 271 272 276 270 271 271 273 279 274 265 260 261 262 258
261 257 261 263 269 266 270 270 274 276 281 271 277 273 272 264 271 275 274 273 274 274 277 282 278 272 274 293 282 279 280 280 277 280 281 279 269 272 275 275 273 269 276 273 263 254 258 256 257
259 275 262 267 262 265 264 268 272 271 273 275 274 273 271 270 274 275 277 281 278 278 279 288 282 292 280 278 287 285 285 282 279 279 273 277 273 274 274 274 276 271 268 270 257 258 255 259 257
264 258 262 266 265 266 263 272 269 271 272 274 277 275 275 274 280 278 277 279 280 282 283 286 280 289 282 292 291 285 282 277 281 265 266 277 272 271 271 271 268 270 276 272 258 255 261 256 259
260 264 266 269 267 265 265 269 271 267 274 273 273 275 272 272 273 278 277 272 277 279 284 288 289 288 292 286 276 279 277 285 278 279 279 274 270 273 255 267 265 261 260 255 255 257 257 259 259
258 263 260 261 269 263 265 267 269 268 269 276 275 277 276 276 281 279 275 273 279 281 284 287 291 288 290 287 289 276 282 276 275 274 271 279 268 267 263 265 258 254 274 257 254 259 253 260 261
257 265 259 268 265 265 265 263 271 273 272 273 276 276 277 275 280 284 273 276 278 280 279 285 282 288 281 289 283 273 273 272 273 272 276 275 265 264 259 248 245 257 255 251 256 254 255 259 269
260 258 261 262 261 264 262 267 273 272 271 270 275 275 277 280 283 282 281 279 284 284 283 281 284 283 287 270 286 274 271 273 267 275 269 268 255 259 261 234 254 251 250 257 256 251 261 267 259
269 263 263 270 266 266 263 268 271 274 272 270 276 275 276 282 284 283 279 285 286 288 284 284 286 287 285 289 287 276 271 269 270 267 271 271 265 250 240 263 244 251 249 255 253 255 262 255 263
258 274 257 262 265 264 264 267 269 268 277 278 278 273 280 279 274 283 286 287 289 287 288 287 282 286 285 283 283 272 268 267 265 266 268 253 246 242 233 250 247 249 245 260 255 259 258 259 258
268 269 268 268 271 262 264 277 269 274 281 281 269 284 276 273 274 281 278 287 289 289 289 288 286 286 281 279 276 274 268 262 261 258 253 246 239 232 250 251 248 255 267 253 258 254 255 266 251
262 265 265 262 276 272 270 270 273 275 282 278 278 275 272 284 276 288 287 287 288 285 287 286 283 283 280 279 272 245 243 257 242 242 263 247 228 249 253 254 247 257 251 251 255 257 255 256 251
265 265 263 266 270 268 268 268 273 281 278 280 271 282 276 278 286 289 288 288 289 288 284 285 283 282 274 271 261 239 236 235 239 259 224 233 209 201 211 238 249 263 256 256 257 251 258 253 264
261 262 268 267 274 270 273 273 271 277 280 280 276 282 287 280 287 288 290 284 284 283 287 285 278 272 270 255 232 226 228 225 227 227 217 217 202 206 232 246 246 245 258 251 255 246 254 264 275
260 262 266 266 267 271 272 272 275 276 277 280 282 288 283 284 287 280 288 287 287 289 287 273 266 262 248 241 228 228 228 226 213 222 208 211 190 226 220 226 250 235 244 248 248 256 252 269 276
261 260 264 267 270 270 270 274 277 275 276 284 281 280 283 283 288 287 288 290 293 280 270 263 261 262 243 233 233 232 222 213 206 206 205 204 211 209 211 225 241 243 252 248 250 251 265 269 275
258 260 262 265 268 270 269 272 273 277 278 281 281 282 284 285 285 287 287 291 272 268 262 267 265 254 238 235 230 224 205 188 191 189 200 192 223 206 214 232 230 243 246 254 253 260 266 270 271
257 266 262 260 265 268 271 272 273 279 279 281 283 283 283 284 282 286 289 287 260 255 256 258 254 240 228 206 201 194 197 200 190 183 187 202 219 217 231 240 231 239 243 249 255 261 262 269 228
259 258 261 263 265 266 268 270 272 276 280 281 282 282 283 282 285 287 287 262 248 247 245 245 230 219 181 177 182 187 183 180 183 188 192 217 208 206 228 231 244 247 244 253 256 260 261 226 219
253 257 260 263 264 265 269 271 273 277 276 279 279 281 282 283 283 283 292 242 237 236 233 224 212 185 180 187 169 173 175 185 183 189 223 202 215 227 228 244 236 246 253 256 255 252 217 216 215
256 255 258 260 262 265 266 270 275 271 274 276 278 279 279 278 280 286 256 231 226 227 214 213 189 184 172 170 170 170 184 176 196 227 198 219 210 225 222 263 244 245 228 206 208 206 212 215 216